Thunderstorms From: 25-05-2018 15:00 Until: 26-05-2018 15:00 warning for: Thunderstorms Level: Yellow info button

Although rather usual in this region, locally or potentially dangerous phenomena are expected. (such as local winds, summer thunderstorms, rising streams or high waves) Be aware and pay attention to the latest weather updates, especially if you carry out activities exposed to weather or close to a stream or shoreline. 


Meteo18 Weather Cam more information Meteo18 Weather Cam


warning for Thunderstorms more information blitzortung!


Rain radar more information rain snow radar


Visit our other weather sites:

Template documentation
and downloads

And another site



Weather Underground History page Text

Daily Summary for March 2, 2016 Units:  Metric    English   Both
« Previous Day
Next Day »
Daily Weekly Monthly Yearly Custom
  High: Low: Average:
Temperature: -17.8 °C -17.2 °C -14 °C
Dew Point: -17.8 °C -17.6 °C -14.9 °C
Humidity: Humidity % 59 % 89 %
Wind Speed: 0 km/h 0 km/h 7.1 km/h
Wind Gust: 0 km/h - -
Wind:- - SSW
Pressure: 0 hPa 34049.6 hPa -
Precipitation: 406.4 mm    
Historical Graphs
 
 
Tabular Data for March 2, 2016
Time Temperature Dew Point Pressure Wind Wind Speed Wind Gust Humidity Rainfall Rate (Hourly)
-17.8 °C -17.8 °C 0 hPa Calm     Humidity % 0 mm
00:02 -13.6 °C -13.8 °C 34384.8 hPa WSW 7.7 km/h 28.5 km/h 97 % 12.7 mm
00:12 -13.6 °C -13.8 °C 34384.8 hPa West 25.9 km/h 33.6 km/h 97 % 12.7 mm
00:17 -13.6 °C -13.8 °C 34384.8 hPa East 7.7 km/h 33.6 km/h 97 % 12.7 mm
00:22 -13.6 °C -13.8 °C 34384.8 hPa WSW 7.7 km/h 25.9 km/h 97 % 12.7 mm
00:32 -13.6 °C -13.8 °C 34384.8 hPa SW 7.7 km/h 25.9 km/h 97 % 12.7 mm
00:37 -13.6 °C -13.8 °C 34371.3 hPa East 12.9 km/h 25.9 km/h 97 % 12.7 mm
00:42 -13.5 °C -13.7 °C 34371.3 hPa SSW 10.3 km/h 23.3 km/h 97 % 12.7 mm
00:47 -13.5 °C -13.7 °C 34371.3 hPa SW 15.6 km/h 25.9 km/h 97 % 12.7 mm
00:52 -13.5 °C -13.7 °C 34371.3 hPa SW 10.3 km/h 25.9 km/h 97 % 12.7 mm
00:57 -13.5 °C -13.7 °C 34371.3 hPa SW 7.7 km/h 20.8 km/h 97 % 12.7 mm
01:02 -13.5 °C -13.7 °C 34371.3 hPa WSW 7.7 km/h 20.8 km/h 97 % 12.7 mm
01:07 -13.5 °C -13.7 °C 34361.1 hPa SW 23.3 km/h 23.3 km/h 97 % 12.7 mm
01:12 -13.5 °C -13.7 °C 34361.1 hPa WSW 10.3 km/h 25.9 km/h 97 % 12.7 mm
01:17 -13.5 °C -13.7 °C 34361.1 hPa WSW 7.7 km/h 25.9 km/h 97 % 20.32 mm
01:22 -13.5 °C -13.7 °C 34361.1 hPa SW 5.1 km/h 25.9 km/h 97 % 12.7 mm
01:27 -13.5 °C -13.7 °C 34361.1 hPa WSW 7.7 km/h 20.8 km/h 97 % 20.32 mm
01:32 -13.5 °C -13.7 °C 34347.6 hPa South 12.9 km/h 20.8 km/h 97 % 20.32 mm
01:37 -13.5 °C -13.7 °C 34347.6 hPa SW 7.7 km/h 23.3 km/h 97 % 20.32 mm
01:42 -13.5 °C -13.7 °C 34347.6 hPa WSW 15.6 km/h 23.3 km/h 97 % 20.32 mm
01:47 -13.4 °C -13.7 °C 34347.6 hPa SW 7.7 km/h 25.9 km/h 97 % 20.32 mm
01:52 -13.4 °C -13.7 °C 34337.4 hPa WSW 7.7 km/h 25.9 km/h 97 % 20.32 mm
01:57 -13.4 °C -13.7 °C 34337.4 hPa SW 10.3 km/h 25.9 km/h 97 % 12.7 mm
02:02 -13.4 °C -13.7 °C 34337.4 hPa WSW 10.3 km/h 23.3 km/h 97 % 12.7 mm
02:07 -13.4 °C -13.7 °C 34337.4 hPa SW 10.3 km/h 31.1 km/h 97 % 20.32 mm
02:12 -13.4 °C -13.7 °C 34327.3 hPa West 10.3 km/h 31.1 km/h 97 % 12.7 mm
02:17 -13.4 °C -13.7 °C 34327.3 hPa WSW 5.1 km/h 31.1 km/h 97 % 12.7 mm
02:22 -13.4 °C -13.7 °C 34327.3 hPa WSW 10.3 km/h 25.9 km/h 97 % 12.7 mm
02:27 -13.4 °C -13.7 °C 34327.3 hPa SSW 10.3 km/h 25.9 km/h 97 % 12.7 mm
02:32 -13.4 °C -13.6 °C 34327.3 hPa SW 2.6 km/h 25.9 km/h 97 % 12.7 mm
02:37 -13.4 °C -13.6 °C 34327.3 hPa SW 12.9 km/h 25.9 km/h 97 % 7.62 mm
02:42 -13.4 °C -13.6 °C 34327.3 hPa SSW 5.1 km/h 25.9 km/h 97 % 12.7 mm
02:47 -13.4 °C -13.6 °C 34327.3 hPa WSW 2.6 km/h 23.3 km/h 97 % 12.7 mm
02:52 -13.4 °C -13.6 °C 34327.3 hPa SW 7.7 km/h 23.3 km/h 97 % 12.7 mm
02:57 -13.4 °C -13.6 °C 34313.7 hPa SW 5.1 km/h 23.3 km/h 97 % 12.7 mm
03:02 -13.4 °C -13.6 °C 34313.7 hPa SW 5.1 km/h 20.8 km/h 97 % 7.62 mm
03:07 -13.4 °C -13.6 °C 34313.7 hPa SSW 18.2 km/h 23.3 km/h 97 % 7.62 mm
03:12 -13.4 °C -13.6 °C 34303.6 hPa SW 12.9 km/h 25.9 km/h 97 % 12.7 mm
03:17 -13.4 °C -13.6 °C 34303.6 hPa SW 15.6 km/h 25.9 km/h 97 % 12.7 mm
03:22 -13.4 °C -13.6 °C 34303.6 hPa SW 7.7 km/h 25.9 km/h 97 % 12.7 mm
03:27 -13.4 °C -13.6 °C 34293.4 hPa SW 10.3 km/h 20.8 km/h 97 % 12.7 mm
03:32 -13.4 °C -13.6 °C 34293.4 hPa WSW 7.7 km/h 23.3 km/h 97 % 12.7 mm
03:37 -13.4 °C -13.6 °C 34293.4 hPa WSW 5.1 km/h 23.3 km/h 97 % 7.62 mm
03:42 -13.4 °C -13.6 °C 34293.4 hPa SW 10.3 km/h 20.8 km/h 97 % 7.62 mm
03:47 -13.4 °C -13.6 °C 34279.9 hPa SW 10.3 km/h 18.2 km/h 97 % 12.7 mm
03:52 -13.4 °C -13.6 °C 34279.9 hPa SE 12.9 km/h 18.2 km/h 97 % 12.7 mm
03:57 -13.4 °C -13.6 °C 34279.9 hPa SW 12.9 km/h 20.8 km/h 97 % 12.7 mm
04:02 -13.4 °C -13.6 °C 34269.7 hPa SW 2.6 km/h 20.8 km/h 98 % 12.7 mm
04:07 -13.3 °C -13.5 °C 34269.7 hPa SW 12.9 km/h 20.8 km/h 98 % 7.62 mm
04:17 -13.3 °C -13.5 °C 34269.7 hPa SW 7.7 km/h 18.2 km/h 98 % 12.7 mm
04:22 -13.3 °C -13.5 °C 34269.7 hPa SW 12.9 km/h 18.2 km/h 98 % 12.7 mm
04:27 -13.3 °C -13.5 °C 34256.2 hPa SW 7.7 km/h 18.2 km/h 98 % 12.7 mm
04:32 -13.3 °C -13.5 °C 34256.2 hPa SW 10.3 km/h 18.2 km/h 98 % 12.7 mm
04:42 -13.3 °C -13.5 °C 34246 hPa SW 7.7 km/h 15.6 km/h 98 % 12.7 mm
04:47 -13.3 °C -13.5 °C 34246 hPa SW 10.3 km/h 18.2 km/h 98 % 12.7 mm
04:52 -13.4 °C -13.6 °C 34246 hPa SW 7.7 km/h 18.2 km/h 98 % 12.7 mm
04:57 -13.3 °C -13.5 °C 34246 hPa SW 7.7 km/h 18.2 km/h 98 % 12.7 mm
05:02 -13.3 °C -13.4 °C 34246 hPa WSW 5.1 km/h 23.3 km/h 98 % 20.32 mm
05:07 -13.3 °C -13.4 °C 34246 hPa WSW 10.3 km/h 23.3 km/h 98 % 20.32 mm
05:12 -13.3 °C -13.4 °C 34235.8 hPa WSW 12.9 km/h 23.3 km/h 98 % 25.4 mm
05:17 -13.3 °C -13.4 °C 34235.8 hPa SW 10.3 km/h 23.3 km/h 98 % 25.4 mm
05:27 -13.3 °C -13.4 °C 34235.8 hPa SW 12.9 km/h 18.2 km/h 98 % 25.4 mm
05:32 -13.3 °C -13.4 °C 34235.8 hPa SW 7.7 km/h 18.2 km/h 98 % 33.02 mm
05:37 -13.3 °C -13.4 °C 34222.3 hPa SSW 2.6 km/h 20.8 km/h 98 % 38.1 mm
05:42 -13.3 °C -13.4 °C 34222.3 hPa SW 7.7 km/h 20.8 km/h 98 % 38.1 mm
05:47 -13.3 °C -13.4 °C 34222.3 hPa WSW 12.9 km/h 20.8 km/h 98 % 38.1 mm
05:52 -13.3 °C -13.4 °C 34222.3 hPa WSW 10.3 km/h 25.9 km/h 98 % 38.1 mm
05:57 -13.3 °C -13.4 °C 34212.1 hPa SW 5.1 km/h 25.9 km/h 98 % 45.72 mm
06:02 -13.3 °C -13.4 °C 34212.1 hPa SW 10.3 km/h 25.9 km/h 98 % 38.1 mm
06:07 -13.3 °C -13.4 °C 34212.1 hPa SW 7.7 km/h 20.8 km/h 98 % 38.1 mm
06:12 -13.3 °C -13.4 °C 34212.1 hPa South 10.3 km/h 18.2 km/h 98 % 38.1 mm
06:17 -13.3 °C -13.4 °C 34212.1 hPa Calm   18.2 km/h 98 % 38.1 mm
06:27 -13.2 °C -13.4 °C 34198.6 hPa WSW 5.1 km/h 25.9 km/h 98 % 38.1 mm
06:32 -13.3 °C -13.4 °C 34198.6 hPa SSW 5.1 km/h 25.9 km/h 98 % 33.02 mm
06:37 -13.3 °C -13.4 °C 34188.4 hPa WSW 7.7 km/h 25.9 km/h 98 % 25.4 mm
06:42 -13.3 °C -13.4 °C 34188.4 hPa SSW 5.1 km/h 15.6 km/h 98 % 20.32 mm
06:47 -13.3 °C -13.5 °C 34188.4 hPa ESE 5.1 km/h 15.6 km/h 98 % 12.7 mm
06:52 -13.3 °C -13.4 °C 34178.3 hPa SW 5.1 km/h 15.6 km/h 98 % 12.7 mm
06:57 -13.3 °C -13.4 °C 34178.3 hPa Calm   12.9 km/h 98 % 12.7 mm
07:02 -13.3 °C -13.4 °C 34178.3 hPa SW 5.1 km/h 12.9 km/h 98 % 12.7 mm
07:07 -13.2 °C -13.4 °C 34178.3 hPa SW 5.1 km/h 12.9 km/h 98 % 20.32 mm
07:12 -13.2 °C -13.4 °C 34164.7 hPa West 5.1 km/h 12.9 km/h 98 % 12.7 mm
07:17 -13.2 °C -13.4 °C 34164.7 hPa WSW 10.3 km/h 12.9 km/h 98 % 12.7 mm
07:22 -13.2 °C -13.3 °C 34164.7 hPa South 2.6 km/h 12.9 km/h 98 % 12.7 mm
07:27 -13.2 °C -13.3 °C 34164.7 hPa SW 7.7 km/h 12.9 km/h 98 % 12.7 mm
07:32 -13.1 °C -13.3 °C 34154.6 hPa SSE 5.1 km/h 18.2 km/h 98 % 20.32 mm
07:37 -13.1 °C -13.3 °C 34154.6 hPa SW 10.3 km/h 18.2 km/h 98 % 20.32 mm
07:42 -13 °C -13.2 °C 34144.4 hPa SW 7.7 km/h 23.3 km/h 98 % 25.4 mm
07:47 -13 °C -13.2 °C 34154.6 hPa SW 10.3 km/h 23.3 km/h 98 % 38.1 mm
07:52 -12.9 °C -13.1 °C 34144.4 hPa WSW 5.1 km/h 23.3 km/h 98 % 33.02 mm
07:57 -12.9 °C -13.1 °C 34144.4 hPa SW 10.3 km/h 20.8 km/h 98 % 38.1 mm
08:02 -12.9 °C -13.1 °C 34144.4 hPa SSW 7.7 km/h 20.8 km/h 98 % 38.1 mm
08:07 -12.9 °C -13.1 °C 34144.4 hPa WSW 2.6 km/h 20.8 km/h 98 % 38.1 mm
08:12 -12.9 °C -13.1 °C 34144.4 hPa SW 5.1 km/h 20.8 km/h 98 % 50.8 mm
08:17 -12.9 °C -13.1 °C 34144.4 hPa SSE 2.6 km/h 18.2 km/h 98 % 58.42 mm
08:22 -12.9 °C -13.1 °C 34154.6 hPa West 2.6 km/h 18.2 km/h 98 % 58.42 mm
08:27 -13.2 °C -13.6 °C 34154.6 hPa ENE 10.3 km/h 23.3 km/h 96 % 83.82 mm
08:32 -13.5 °C -13.8 °C 34154.6 hPa ENE 2.6 km/h 23.3 km/h 96 % 91.44 mm
08:37 -13.6 °C -13.9 °C 34154.6 hPa Calm   23.3 km/h 96 % 96.52 mm
08:42 -13.6 °C -13.9 °C 34154.6 hPa NE 2.6 km/h 20.8 km/h 96 % 91.44 mm
08:52 -13.6 °C -13.9 °C 34144.4 hPa Calm   10.3 km/h 96 % 91.44 mm
08:57 -13.6 °C -13.9 °C 34144.4 hPa Calm   10.3 km/h 96 % 91.44 mm
09:02 -13.6 °C -13.9 °C 34144.4 hPa SSE 2.6 km/h 10.3 km/h 96 % 83.82 mm
09:07 -13.6 °C -13.9 °C 34154.6 hPa Calm   10.3 km/h 96 % 76.2 mm
09:12 -13.6 °C -13.9 °C 34154.6 hPa SW 2.6 km/h 10.3 km/h 95 % 76.2 mm
09:17 -13.6 °C -13.9 °C 34144.4 hPa Calm   7.7 km/h 95 % 63.5 mm
09:22 -13.6 °C -13.9 °C 34144.4 hPa Calm   15.6 km/h 95 % 63.5 mm
09:27 -13.6 °C -13.9 °C 34144.4 hPa Calm   15.6 km/h 95 % 38.1 mm
09:32 -13.6 °C -13.9 °C 34144.4 hPa ESE 2.6 km/h 15.6 km/h 95 % 25.4 mm
09:37 -13.6 °C -13.9 °C 34144.4 hPa NE 5.1 km/h 12.9 km/h 95 % 25.4 mm
09:42 -13.5 °C -13.9 °C 34144.4 hPa Calm   12.9 km/h 95 % 20.32 mm
09:47 -13.4 °C -13.9 °C 34144.4 hPa Calm   10.3 km/h 95 % 12.7 mm
09:52 -13.4 °C -13.8 °C 34144.4 hPa SW 7.7 km/h 12.9 km/h 95 % 12.7 mm
09:57 -13.4 °C -13.8 °C 34144.4 hPa ESE 5.1 km/h 15.6 km/h 95 % 12.7 mm
10:02 -13.4 °C -13.8 °C 34144.4 hPa SSW 5.1 km/h 15.6 km/h 95 % 12.7 mm
10:07 -13.4 °C -13.9 °C 34144.4 hPa SW 7.7 km/h 15.6 km/h 94 % 12.7 mm
10:12 -13.4 °C -13.9 °C 34144.4 hPa Calm   18.2 km/h 94 % 12.7 mm
10:17 -13.4 °C -13.9 °C 34144.4 hPa WSW 5.1 km/h 18.2 km/h 94 % 7.62 mm
10:22 -13.4 °C -13.9 °C 34144.4 hPa ENE 12.9 km/h 18.2 km/h 94 % 7.62 mm
10:27 -13.3 °C -13.9 °C 34130.9 hPa SW 7.7 km/h 20.8 km/h 93 % 7.62 mm
10:32 -13.3 °C -13.9 °C 34144.4 hPa ESE 5.1 km/h 20.8 km/h 93 % 7.62 mm
10:37 -13.4 °C -14 °C 34130.9 hPa Calm   20.8 km/h 93 % 12.7 mm
10:42 -13.4 °C -13.9 °C 34144.4 hPa SSE 2.6 km/h 20.8 km/h 94 % 12.7 mm
10:47 -13.4 °C -13.9 °C 34130.9 hPa ESE 5.1 km/h 20.8 km/h 94 % 12.7 mm
10:52 -13.4 °C -13.9 °C 34130.9 hPa SW 2.6 km/h 12.9 km/h 95 % 12.7 mm
10:57 -13.4 °C -13.8 °C 34130.9 hPa WSW 2.6 km/h 12.9 km/h 95 % 12.7 mm
11:02 -13.3 °C -13.8 °C 34130.9 hPa SW 5.1 km/h 12.9 km/h 95 % 12.7 mm
11:07 -13.3 °C -13.7 °C 34120.7 hPa Calm   12.9 km/h 95 % 12.7 mm
11:12 -13.2 °C -13.7 °C 34130.9 hPa SSW 7.7 km/h 25.9 km/h 94 % 12.7 mm
11:17 -13.1 °C -13.7 °C 34120.7 hPa SSW 5.1 km/h 25.9 km/h 93 % 12.7 mm
11:22 -12.9 °C -13.6 °C 34130.9 hPa SW 12.9 km/h 23.3 km/h 93 % 12.7 mm
11:32 -13.4 °C -14.7 °C 34144.4 hPa NE 20.8 km/h 28.5 km/h 85 % 12.7 mm
11:37 -14.1 °C -15.1 °C 34144.4 hPa NE 18.2 km/h 54.4 km/h 89 % 12.7 mm
11:42 -14.3 °C -15.1 °C 34144.4 hPa SSW 2.6 km/h 54.4 km/h 91 % 12.7 mm
11:47 -14.3 °C -15 °C 34144.4 hPa SSW 2.6 km/h 44.1 km/h 92 % 12.7 mm
11:52 -14.2 °C -14.9 °C 34144.4 hPa East 2.6 km/h 33.6 km/h 92 % 12.7 mm
11:57 -14.2 °C -14.9 °C 34144.4 hPa Calm   33.6 km/h 92 % 7.62 mm
12:02 -14.2 °C -14.9 °C 34130.9 hPa Calm   28.5 km/h 91 % 7.62 mm
12:07 -14.1 °C -14.9 °C 34144.4 hPa Calm   12.9 km/h 91 % 7.62 mm
12:12 -14.1 °C -14.9 °C 34144.4 hPa North 10.3 km/h 12.9 km/h 90 % 7.62 mm
12:17 -14 °C -14.9 °C 34144.4 hPa Calm   20.8 km/h 89 % 7.62 mm
12:22 -13.9 °C -14.9 °C 34144.4 hPa NE 5.1 km/h 20.8 km/h 88 % 7.62 mm
12:27 -13.8 °C -14.9 °C 34154.6 hPa Calm   33.6 km/h 88 % 7.62 mm
12:32 -13.6 °C -14.7 °C 34154.6 hPa East 2.6 km/h 33.6 km/h 88 % 7.62 mm
12:42 -13.2 °C -14.7 °C 34144.4 hPa SW 7.7 km/h 28.5 km/h 83 % 7.62 mm
12:47 -13 °C -14.7 °C 34144.4 hPa SSW 10.3 km/h 28.5 km/h 81 % 7.62 mm
12:52 -12.8 °C -14.3 °C 34144.4 hPa WSW 7.7 km/h 28.5 km/h 84 % 7.62 mm
12:57 -12.6 °C -14.2 °C 34144.4 hPa SW 12.9 km/h 31.1 km/h 82 % 7.62 mm
13:02 -12.7 °C -14.8 °C 34144.4 hPa ESE 23.3 km/h 31.1 km/h 77 % 7.62 mm
13:07 -12.9 °C -14.9 °C 34144.4 hPa Calm   31.1 km/h 78 % 7.62 mm
13:12 -13.1 °C -15.2 °C 34144.4 hPa SW 20.8 km/h 25.9 km/h 77 % 7.62 mm
13:17 -13.2 °C -15.3 °C 34130.9 hPa ENE 5.1 km/h 28.5 km/h 77 % 7.62 mm
13:22 -13 °C -14.9 °C 34130.9 hPa WSW 20.8 km/h 28.5 km/h 79 % 7.62 mm
13:27 -12.9 °C -15.1 °C 34130.9 hPa ESE 10.3 km/h 28.5 km/h 76 % 7.62 mm
13:32 -12.8 °C -15 °C 34130.9 hPa Calm   28.5 km/h 76 % 7.62 mm
13:37 -12.7 °C -15 °C 34120.7 hPa SSW 5.1 km/h 28.5 km/h 75 % 0 mm
13:42 -12.7 °C -15.2 °C 34120.7 hPa SW 5.1 km/h 20.8 km/h 74 % 0 mm
13:47 -12.7 °C -15.4 °C 34120.7 hPa South 7.7 km/h 20.8 km/h 71 % 0 mm
13:52 -12.6 °C -15.8 °C 34120.7 hPa SW 10.3 km/h 25.9 km/h 67 % 0 mm
13:57 -12.3 °C -14.9 °C 34120.7 hPa East 7.7 km/h 28.5 km/h 73 % 0 mm
14:02 -12.1 °C -14.8 °C 34120.7 hPa ENE 5.1 km/h 28.5 km/h 72 % 0 mm
14:07 -12.4 °C -15 °C 34107.2 hPa NE 15.6 km/h 28.5 km/h 73 % 0 mm
14:17 -12.9 °C -15.1 °C 34107.2 hPa NNE 15.6 km/h 23.3 km/h 76 % 0 mm
14:22 -12.9 °C -15 °C 34107.2 hPa ENE 5.1 km/h 23.3 km/h 77 % 0 mm
14:27 -12.9 °C -15.2 °C 34107.2 hPa East 5.1 km/h 15.6 km/h 75 % 0 mm
14:32 -12.9 °C -15.1 °C 34107.2 hPa ENE 5.1 km/h 31.1 km/h 77 % 0 mm
14:37 -12.8 °C -15.2 °C 34107.2 hPa SW 2.6 km/h 31.1 km/h 75 % 0 mm
14:42 -12.6 °C -15.2 °C 34107.2 hPa SW 2.6 km/h 31.1 km/h 73 % 0 mm
14:47 -12.7 °C -15.6 °C 34107.2 hPa NE 5.1 km/h 20.8 km/h 70 % 0 mm
14:52 -12.8 °C -15.6 °C 34097 hPa SW 2.6 km/h 18.2 km/h 71 % 0 mm
14:57 -12.9 °C -15.7 °C 34097 hPa Calm   20.8 km/h 71 % 0 mm
15:07 -12.8 °C -15.8 °C 34097 hPa South 5.1 km/h 20.8 km/h 69 % 0 mm
15:12 -12.8 °C -16.2 °C 34097 hPa SSW 7.7 km/h 20.8 km/h 66 % 0 mm
15:17 -12.7 °C -16.2 °C 34086.9 hPa SW 10.3 km/h 31.1 km/h 65 % 0 mm
15:22 -12.9 °C -16.8 °C 34086.9 hPa SW 5.1 km/h 31.1 km/h 61 % 0 mm
15:32 -12.9 °C -17.2 °C 34086.9 hPa SW 12.9 km/h 25.9 km/h 59 % 0 mm
15:37 -12.7 °C -16.8 °C 34073.3 hPa South 7.7 km/h 28.5 km/h 60 % 0 mm
15:42 -12.6 °C -16.8 °C 34073.3 hPa SW 7.7 km/h 38.8 km/h 59 % 0 mm
15:47 -12.6 °C -16.8 °C 34073.3 hPa SSW 5.1 km/h 38.8 km/h 59 % 0 mm
15:57 -12.3 °C -16.4 °C 34073.3 hPa SSW 12.9 km/h 31.1 km/h 60 % 0 mm
16:02 -12.5 °C -16.7 °C 34063.2 hPa SSW 20.8 km/h 31.1 km/h 59 % 0 mm
16:07 -12.7 °C -16.6 °C 34063.2 hPa East 10.3 km/h 28.5 km/h 61 % 0 mm
16:12 -12.7 °C -16.4 °C 34063.2 hPa SW 10.3 km/h 28.5 km/h 63 % 0 mm
16:17 -12.7 °C -16.2 °C 34063.2 hPa WSW 12.9 km/h 28.5 km/h 65 % 0 mm
16:22 -12.6 °C -16.2 °C 34063.2 hPa SW 18.2 km/h 36.2 km/h 64 % 0 mm
16:32 -12.8 °C -16.1 °C 34073.3 hPa SSE 7.7 km/h 41.4 km/h 67 % 0 mm
16:37 -12.8 °C -16.1 °C 34073.3 hPa Calm   41.4 km/h 67 % 0 mm
16:47 -12.7 °C -15.9 °C 34073.3 hPa WSW 15.6 km/h 23.3 km/h 67 % 0 mm
17:02 -12.9 °C -16.2 °C 34073.3 hPa South 20.8 km/h 25.9 km/h 66 % 0 mm
17:07 -13.1 °C -16.5 °C 34073.3 hPa SW 12.9 km/h 28.5 km/h 65 % 0 mm
17:12 -13.2 °C -16.6 °C 34073.3 hPa SW 15.6 km/h 28.5 km/h 66 % 0 mm
17:17 -13.3 °C -16.7 °C 34073.3 hPa South 10.3 km/h 28.5 km/h 65 % 0 mm
17:22 -13.4 °C -16.6 °C 34073.3 hPa West 5.1 km/h 28.5 km/h 67 % 0 mm
17:32 -13.4 °C -16.3 °C 34063.2 hPa SW 7.7 km/h 23.3 km/h 69 % 0 mm
17:37 -13.4 °C -16.4 °C 34049.6 hPa SW 7.7 km/h 18.2 km/h 68 % 0 mm
17:42 -13.4 °C -16.4 °C 34049.6 hPa WSW 7.7 km/h 31.1 km/h 68 % 0 mm
17:47 -13.4 °C -16.4 °C 34049.6 hPa SW 10.3 km/h 31.1 km/h 69 % 0 mm
17:52 -13.5 °C -16.4 °C 34049.6 hPa WSW 20.8 km/h 31.1 km/h 69 % 0 mm
17:57 -13.5 °C -16.3 °C 34049.6 hPa SW 10.3 km/h 31.1 km/h 70 % 0 mm
18:02 -13.6 °C -16.5 °C 34049.6 hPa SW 12.9 km/h 23.3 km/h 69 % 0 mm
18:12 -13.4 °C -16.4 °C 34086.9 hPa ENE 5.1 km/h 31.1 km/h 69 % 0 mm
18:17 -14.9 °C -17.1 °C 34144.4 hPa ESE 12.9 km/h 49.2 km/h 76 % 0 mm
18:22 -16.1 °C -17.3 °C 34144.4 hPa East 10.3 km/h 49.2 km/h 85 % 0 mm
18:27 -16.4 °C -17.4 °C 34144.4 hPa NE 18.2 km/h 49.2 km/h 88 % 0 mm
18:32 -16.7 °C -17.6 °C 34144.4 hPa SE 2.6 km/h 38.8 km/h 89 % 0 mm
18:42 -16.9 °C -17.6 °C 34120.7 hPa Calm   25.9 km/h 92 % 12.7 mm
18:47 -16.8 °C -17.5 °C 34086.9 hPa WSW 2.6 km/h 25.9 km/h 92 % 12.7 mm
18:52 -16.7 °C -17.4 °C 34107.2 hPa SW 2.6 km/h 18.2 km/h 91 % 20.32 mm
18:57 -16.6 °C -17.3 °C 34107.2 hPa SW 2.6 km/h 18.2 km/h 91 % 20.32 mm
19:02 -16.6 °C -17.3 °C 34120.7 hPa SW 7.7 km/h 18.2 km/h 91 % 25.4 mm
19:07 -16.6 °C -17.3 °C 34120.7 hPa SW 12.9 km/h 15.6 km/h 91 % 33.02 mm
19:12 -16.6 °C -17.2 °C 34130.9 hPa SW 12.9 km/h 18.2 km/h 92 % 33.02 mm
19:17 -16.6 °C -17.3 °C 34130.9 hPa SW 7.7 km/h 25.9 km/h 91 % 38.1 mm
19:22 -16.6 °C -17.3 °C 34130.9 hPa NE 5.1 km/h 25.9 km/h 91 % 38.1 mm
19:27 -16.5 °C -17.2 °C 34130.9 hPa SSW 18.2 km/h 25.9 km/h 91 % 38.1 mm
19:32 -16.5 °C -17.2 °C 34130.9 hPa East 7.7 km/h 20.8 km/h 91 % 38.1 mm
19:37 -16.6 °C -17.2 °C 34144.4 hPa SW 7.7 km/h 20.8 km/h 92 % 33.02 mm
19:47 -16.5 °C -17.2 °C 34144.4 hPa South 2.6 km/h 20.8 km/h 92 % 20.32 mm
19:52 -16.6 °C -17.2 °C 34144.4 hPa Calm   20.8 km/h 92 % 20.32 mm
19:57 -16.5 °C -17.2 °C 34144.4 hPa Calm   12.9 km/h 92 % 12.7 mm
20:02 -16.6 °C -17.2 °C 34144.4 hPa SW 5.1 km/h 12.9 km/h 92 % 12.7 mm
20:07 -16.6 °C -17.2 °C 34144.4 hPa WSW 2.6 km/h 12.9 km/h 92 % 12.7 mm
20:12 -16.6 °C -17.2 °C 34144.4 hPa SW 5.1 km/h 12.9 km/h 92 % 12.7 mm
20:17 -16.5 °C -17.2 °C 34144.4 hPa SW 5.1 km/h 15.6 km/h 92 % 12.7 mm
20:22 -16.4 °C -17.1 °C 34144.4 hPa ENE 5.1 km/h 18.2 km/h 92 % 12.7 mm
20:32 -16.4 °C -17.1 °C 34144.4 hPa SSE 2.6 km/h 23.3 km/h 92 % 7.62 mm
20:42 -16.5 °C -17.2 °C 34154.6 hPa WSW 2.6 km/h 18.2 km/h 92 % 7.62 mm
20:47 -16.6 °C -17.2 °C 34154.6 hPa South 2.6 km/h 18.2 km/h 92 % 7.62 mm
20:52 -16.6 °C -17.2 °C 34154.6 hPa SW 5.1 km/h 12.9 km/h 92 % 12.7 mm
20:57 -16.6 °C -17.3 °C 34154.6 hPa WSW 2.6 km/h 12.9 km/h 92 % 12.7 mm
21:02 -16.7 °C -17.3 °C 34144.4 hPa SW 12.9 km/h 12.9 km/h 93 % 12.7 mm
21:07 -16.8 °C -17.3 °C 34144.4 hPa Calm   12.9 km/h 93 % 12.7 mm
21:12 -16.9 °C -17.4 °C 34144.4 hPa SW 2.6 km/h 12.9 km/h 93 % 7.62 mm
21:17 -17.1 °C -17.6 °C 34144.4 hPa Calm   12.9 km/h 93 % 7.62 mm
21:22 -17.1 °C -17.6 °C 34144.4 hPa Calm   12.9 km/h 94 % 7.62 mm
21:32 -17.2 °C -17.6 °C 34144.4 hPa Calm   10.3 km/h 95 % 7.62 mm
21:37 -17.1 °C -17.4 °C 34144.4 hPa WSW 2.6 km/h 5.1 km/h 96 % 7.62 mm
21:52 -16.8 °C -17.2 °C 34144.4 hPa SW 10.3 km/h 15.6 km/h 96 % 0 mm
21:57 -16.8 °C -17.2 °C 34144.4 hPa SW 2.6 km/h 10.3 km/h 95 % 0 mm
22:02 -16.7 °C -17.1 °C 34144.4 hPa SSW 5.1 km/h 12.9 km/h 95 % 0 mm
22:07 -16.7 °C -17.1 °C 34144.4 hPa SW 2.6 km/h 12.9 km/h 95 % 0 mm
22:12 -16.6 °C -17 °C 34144.4 hPa SW 2.6 km/h 12.9 km/h 95 % 0 mm
22:17 -16.6 °C -17 °C 34144.4 hPa SW 5.1 km/h 10.3 km/h 95 % 0 mm
22:22 -16.6 °C -16.9 °C 34144.4 hPa SW 2.6 km/h 10.3 km/h 95 % 0 mm
22:27 -16.5 °C -16.9 °C 34130.9 hPa WSW 5.1 km/h 10.3 km/h 95 % 7.62 mm
22:32 -16.4 °C -16.8 °C 34130.9 hPa Calm   15.6 km/h 95 % 7.62 mm
22:37 -16.4 °C -16.8 °C 34130.9 hPa SW 5.1 km/h 15.6 km/h 95 % 12.7 mm
22:42 -16.4 °C -16.8 °C 34130.9 hPa SSW 5.1 km/h 15.6 km/h 95 % 12.7 mm
22:47 -16.3 °C -16.7 °C 34130.9 hPa West 5.1 km/h 18.2 km/h 96 % 12.7 mm
22:57 -16.3 °C -16.6 °C 34120.7 hPa SW 5.1 km/h 18.2 km/h 96 % 20.32 mm
23:02 -16.2 °C -16.6 °C 34120.7 hPa Calm   12.9 km/h 96 % 25.4 mm
23:12 -16.2 °C -16.5 °C 34120.7 hPa Calm   12.9 km/h 96 % 33.02 mm
23:17 -16.2 °C -16.5 °C 34107.2 hPa SW 5.1 km/h 12.9 km/h 96 % 38.1 mm
23:22 -16.1 °C -16.4 °C 34107.2 hPa Calm   12.9 km/h 96 % 33.02 mm
23:32 -15.9 °C -16.3 °C 34107.2 hPa ESE 2.6 km/h 12.9 km/h 96 % 50.8 mm
23:37 -15.9 °C -16.3 °C 34107.2 hPa SW 10.3 km/h 12.9 km/h 96 % 45.72 mm
23:42 -15.9 °C -16.2 °C 34107.2 hPa WNW 2.6 km/h 10.3 km/h 96 % 50.8 mm
23:47 -15.8 °C -16.1 °C 34107.2 hPa SW 10.3 km/h 12.9 km/h 96 % 45.72 mm
23:52 -15.7 °C -16.1 °C 34107.2 hPa WSW 5.1 km/h 15.6 km/h 96 % 45.72 mm
23:57 -15.7 °C -16.1 °C 34097 hPa Calm   18.2 km/h 95 % 38.1 mm
Meteo18
Compliments of Weather Underground - 4 mb

Script developed by  Jim McMurry - jmcmurry@mwt.net Adapted for the template by  Wim van der Kuil - Leuven-Template.eu

You find our weather info also at:

European Weather Network

Weather Underground

Equipment we use:

Weather-station
Davis Vue

Weather-program
Meteobridge

Weather-server
Raspberry PI 2 B+

Provider
1 and 1

Davis Vue

Meteobridge

Raspberry PI 2 B+

1 and 1